N78AL EHRD-LFBO

Flight info

Callsign N78AL
Flight time 1h 21m
Altitude 35000
Route WOODY N872 NIK DCT KOVIN DCT DUCRA UM728 RESMI UN857 DISAK DCT DIRMO DCT GUERE DCT NARAK
Aircraft CL60/M-SADE3FGHIJ3J4J7P2RWXY/HB1D1

Departure

Time 2026-04-29 15:08
Airport Rotterdam The Hague Airport (EHRD)

Arrival

Time 2026-04-29 16:30
Airport Toulouse-Blagnac Airport (LFBO)
Time Latitude Longitude Altitude Speed Heading
2026-04-29 14:46 51.95016 4.43506 -5 ft 0 kts 328°
2026-04-29 15:05 51.95022 4.43500 -5 ft 5 kts 332°
2026-04-29 15:05 51.95061 4.43516 -5 ft 6 kts 46°
2026-04-29 15:05 51.95098 4.43571 -8 ft 11 kts
2026-04-29 15:06 51.95207 4.43478 -6 ft 15 kts 324°
2026-04-29 15:06 51.95218 4.43350 -5 ft 16 kts 239°
2026-04-29 15:06 51.95150 4.43170 -5 ft 19 kts 244°
2026-04-29 15:06 51.95126 4.43076 -6 ft 0 kts 253°
2026-04-29 15:07 51.95121 4.43048 -7 ft 10 kts 257°
2026-04-29 15:07 51.95150 4.42926 -8 ft 17 kts 316°
2026-04-29 15:07 51.95233 4.42898 -7 ft 12 kts 38°
2026-04-29 15:07 51.95287 4.43018 -7 ft 14 kts 56°
2026-04-29 15:08 51.95343 4.43156 -5 ft 15 kts 57°
2026-04-29 15:08 51.95515 4.43601 -6 ft 94 kts 57°
2026-04-29 15:08 51.96010 4.44831 -10 ft 154 kts 55°
2026-04-29 15:08 51.96613 4.46215 636 ft 146 kts 55°
2026-04-29 15:09 51.97226 4.47860 774 ft 183 kts 62°
2026-04-29 15:09 51.97823 4.49627 872 ft 180 kts 63°
2026-04-29 15:09 51.98411 4.51438 984 ft 183 kts 64°
2026-04-29 15:09 51.99013 4.53413 1369 ft 211 kts 65°
2026-04-29 15:10 51.99690 4.55652 1946 ft 231 kts 65°
2026-04-29 15:10 52.00251 4.58174 2464 ft 242 kts 82°
2026-04-29 15:10 52.00061 4.60862 2634 ft 241 kts 114°
2026-04-29 15:10 51.98982 4.62953 2660 ft 250 kts 147°
2026-04-29 15:11 51.97437 4.64274 2656 ft 251 kts 153°
2026-04-29 15:11 51.95852 4.65547 2710 ft 266 kts 155°
2026-04-29 15:11 51.94005 4.66297 3894 ft 280 kts 179°
2026-04-29 15:11 51.92188 4.65720 5648 ft 273 kts 203°
2026-04-29 15:12 51.90687 4.64048 7108 ft 274 kts 229°
2026-04-29 15:12 51.89914 4.62406 8000 ft 278 kts 236°
2026-04-29 15:12 51.88462 4.58954 9719 ft 286 kts 236°
2026-04-29 15:12 51.87182 4.56492 10906 ft 295 kts 221°
2026-04-29 15:13 51.85323 4.54883 11664 ft 319 kts 197°
2026-04-29 15:13 51.83120 4.53974 12529 ft 335 kts 195°
2026-04-29 15:13 51.80839 4.53049 13548 ft 343 kts 196°
2026-04-29 15:13 51.78510 4.52097 14601 ft 349 kts 196°
2026-04-29 15:14 51.76138 4.51128 15626 ft 355 kts 196°
2026-04-29 15:14 51.73756 4.50154 16609 ft 360 kts 196°
2026-04-29 15:14 51.71310 4.49155 17538 ft 365 kts 197°
2026-04-29 15:14 51.68803 4.48130 18435 ft 370 kts 196°
2026-04-29 15:15 51.66306 4.47110 19290 ft 375 kts 196°
2026-04-29 15:15 51.63784 4.46081 20118 ft 379 kts 197°
2026-04-29 15:15 51.61177 4.45018 20897 ft 384 kts 197°
2026-04-29 15:15 51.58584 4.43960 21645 ft 388 kts 197°
2026-04-29 15:16 51.55948 4.42887 22360 ft 393 kts 197°
2026-04-29 15:16 51.53287 4.41804 23052 ft 397 kts 197°
2026-04-29 15:16 51.50558 4.40694 23734 ft 401 kts 197°
2026-04-29 15:16 51.47829 4.39586 24368 ft 406 kts 196°
2026-04-29 15:17 51.45084 4.38472 24961 ft 410 kts 197°
2026-04-29 15:17 51.42320 4.37352 25508 ft 415 kts 196°
2026-04-29 15:17 51.39553 4.35924 26067 ft 416 kts 206°
2026-04-29 15:17 51.36938 4.33947 26562 ft 420 kts 207°
2026-04-29 15:18 51.34274 4.31909 27057 ft 424 kts 207°
2026-04-29 15:18 51.31599 4.29873 27548 ft 427 kts 207°
2026-04-29 15:18 51.28893 4.27812 28014 ft 431 kts 207°
2026-04-29 15:18 51.26193 4.25757 28451 ft 434 kts 207°
2026-04-29 15:19 51.23436 4.23662 28895 ft 437 kts 207°
2026-04-29 15:19 51.20681 4.21573 29304 ft 440 kts 207°
2026-04-29 15:19 51.17887 4.19458 29684 ft 444 kts 207°
2026-04-29 15:19 51.15044 4.17430 30057 ft 447 kts 205°
2026-04-29 15:20 51.12192 4.15530 30433 ft 450 kts 204°
2026-04-29 15:20 51.09268 4.13584 30817 ft 452 kts 204°
2026-04-29 15:20 51.06379 4.11665 31184 ft 454 kts 205°
2026-04-29 15:20 51.03444 4.09717 31522 ft 456 kts 205°
2026-04-29 15:21 51.00500 4.07767 31843 ft 458 kts 205°
2026-04-29 15:21 50.97574 4.05831 32162 ft 459 kts 205°
2026-04-29 15:21 50.94595 4.03863 32457 ft 461 kts 204°
2026-04-29 15:21 50.91640 4.01914 32726 ft 462 kts 205°
2026-04-29 15:22 50.88700 3.99977 32977 ft 464 kts 205°
2026-04-29 15:22 50.85690 3.97996 33221 ft 465 kts 205°
2026-04-29 15:22 50.82742 3.96060 33434 ft 467 kts 205°
2026-04-29 15:22 50.79704 3.94067 33645 ft 468 kts 205°
2026-04-29 15:23 50.76689 3.92093 33873 ft 469 kts 205°
2026-04-29 15:23 50.73652 3.90106 34138 ft 468 kts 205°
2026-04-29 15:23 50.70652 3.88147 34425 ft 467 kts 205°
2026-04-29 15:23 50.67657 3.86194 34712 ft 466 kts 205°
2026-04-29 15:24 50.64678 3.84254 34993 ft 464 kts 205°
2026-04-29 15:24 50.61691 3.82311 35257 ft 463 kts 205°
2026-04-29 15:24 50.58691 3.80363 35520 ft 462 kts 205°
2026-04-29 15:24 50.55740 3.78449 35774 ft 461 kts 205°
2026-04-29 15:25 50.52754 3.76515 36009 ft 461 kts 205°
2026-04-29 15:25 50.49791 3.74598 36247 ft 460 kts 205°
2026-04-29 15:25 50.46831 3.72687 36435 ft 460 kts 206°
2026-04-29 15:25 50.43878 3.70781 36620 ft 460 kts 206°
2026-04-29 15:26 50.40887 3.68854 36801 ft 459 kts 206°
2026-04-29 15:26 50.37925 3.66948 36978 ft 459 kts 206°
2026-04-29 15:26 50.34960 3.65043 37010 ft 462 kts 206°
2026-04-29 15:27 50.29014 3.61230 37006 ft 463 kts 206°
2026-04-29 15:27 50.23100 3.57449 37006 ft 461 kts 206°
2026-04-29 15:28 50.17123 3.53637 37006 ft 460 kts 206°
2026-04-29 15:28 50.11225 3.49887 37007 ft 460 kts 206°
2026-04-29 15:29 50.05332 3.46148 37008 ft 460 kts 206°
2026-04-29 15:30 49.93488 3.38666 37008 ft 460 kts 206°
2026-04-29 15:30 49.87548 3.34928 37007 ft 460 kts 205°
2026-04-29 15:31 49.81631 3.31213 37006 ft 460 kts 205°
2026-04-29 15:31 49.75678 3.27487 37005 ft 460 kts 205°
2026-04-29 15:32 49.69746 3.23783 37005 ft 460 kts 205°
2026-04-29 15:32 49.63863 3.20120 37007 ft 460 kts 205°
2026-04-29 15:33 49.57917 3.16427 37007 ft 460 kts 205°
2026-04-29 15:33 49.52005 3.12766 37007 ft 460 kts 205°
2026-04-29 15:34 49.46382 3.08419 37007 ft 455 kts 217°
2026-04-29 15:34 49.41083 3.03018 37005 ft 455 kts 217°
2026-04-29 15:35 49.35851 2.97710 37006 ft 455 kts 217°
2026-04-29 15:35 49.30581 2.92378 37007 ft 455 kts 217°
2026-04-29 15:36 49.25316 2.87064 37008 ft 455 kts 217°
2026-04-29 15:36 49.20034 2.81748 37008 ft 455 kts 217°
2026-04-29 15:37 49.14740 2.76432 37008 ft 455 kts 217°
2026-04-29 15:37 49.09441 2.71126 37007 ft 455 kts 217°
2026-04-29 15:38 49.04183 2.65874 37006 ft 455 kts 217°
2026-04-29 15:38 48.98953 2.60663 37006 ft 455 kts 217°
2026-04-29 15:39 48.93695 2.55438 37006 ft 455 kts 217°
2026-04-29 15:39 48.88417 2.50207 37005 ft 455 kts 217°
2026-04-29 15:40 48.83118 2.44968 37005 ft 455 kts 217°
2026-04-29 15:40 48.77800 2.39723 37005 ft 455 kts 217°
2026-04-29 15:41 48.72547 2.34555 37005 ft 455 kts 216°
2026-04-29 15:41 48.67254 2.29361 37006 ft 455 kts 216°
2026-04-29 15:42 48.61964 2.24183 37007 ft 455 kts 216°
2026-04-29 15:42 48.56368 2.19579 37010 ft 460 kts 205°
2026-04-29 15:43 48.50168 2.17018 37006 ft 465 kts 195°
2026-04-29 15:43 48.43818 2.14976 37009 ft 465 kts 195°
2026-04-29 15:44 48.37449 2.12927 37009 ft 465 kts 195°
2026-04-29 15:44 48.31173 2.11009 37011 ft 466 kts 191°
2026-04-29 15:45 48.24688 2.10801 37010 ft 472 kts 176°
2026-04-29 15:45 48.18179 2.12145 37008 ft 474 kts 174°
2026-04-29 15:46 48.11682 2.13325 37011 ft 472 kts 180°
2026-04-29 15:46 48.05106 2.13703 37008 ft 471 kts 180°
2026-04-29 15:47 47.98562 2.14078 37009 ft 471 kts 180°
2026-04-29 15:47 47.92024 2.14453 37009 ft 471 kts 180°
2026-04-29 15:48 47.85474 2.14831 37009 ft 471 kts 180°
2026-04-29 15:48 47.78896 2.15211 37009 ft 471 kts 180°
2026-04-29 15:49 47.72354 2.15589 37009 ft 471 kts 180°
2026-04-29 15:49 47.65753 2.15970 37009 ft 471 kts 180°
2026-04-29 15:50 47.59221 2.16346 37009 ft 471 kts 180°
2026-04-29 15:50 47.52636 2.16725 37010 ft 471 kts 180°
2026-04-29 15:51 47.46069 2.17103 37010 ft 471 kts 180°
2026-04-29 15:51 47.39541 2.17477 37010 ft 471 kts 180°
2026-04-29 15:52 47.32961 2.17854 37010 ft 471 kts 180°
2026-04-29 15:52 47.26390 2.18229 37010 ft 471 kts 180°
2026-04-29 15:53 47.19811 2.18604 37011 ft 471 kts 180°
2026-04-29 15:53 47.13258 2.18977 37011 ft 471 kts 180°
2026-04-29 15:54 47.06672 2.19027 37011 ft 468 kts 187°
2026-04-29 15:54 47.00203 2.18255 37010 ft 468 kts 187°
2026-04-29 15:55 46.93642 2.17483 37012 ft 468 kts 187°
2026-04-29 15:55 46.87166 2.16726 37012 ft 468 kts 187°
2026-04-29 15:56 46.80653 2.15969 37012 ft 468 kts 187°
2026-04-29 15:56 46.74167 2.15218 37013 ft 468 kts 187°
2026-04-29 15:57 46.67691 2.14472 37017 ft 468 kts 187°
2026-04-29 15:57 46.61214 2.13727 37020 ft 468 kts 187°
2026-04-29 15:58 46.54725 2.12985 37023 ft 468 kts 187°
2026-04-29 15:58 46.48263 2.12247 37026 ft 468 kts 187°
2026-04-29 15:59 46.41777 2.11509 37028 ft 468 kts 187°
2026-04-29 15:59 46.35221 2.10765 37030 ft 468 kts 187°
2026-04-29 16:00 46.28733 2.10031 37032 ft 468 kts 187°
2026-04-29 16:00 46.22214 2.09295 37034 ft 468 kts 187°
2026-04-29 16:01 46.15733 2.08347 37036 ft 467 kts 190°
2026-04-29 16:01 46.09258 2.07137 37039 ft 467 kts 190°
2026-04-29 16:02 46.02810 2.05939 37041 ft 467 kts 190°
2026-04-29 16:02 45.96344 2.04742 37043 ft 467 kts 190°
2026-04-29 16:03 45.89895 2.03551 37047 ft 467 kts 190°
2026-04-29 16:03 45.83429 2.02361 37050 ft 467 kts 190°
2026-04-29 16:04 45.76973 2.01176 37054 ft 467 kts 190°
2026-04-29 16:04 45.70526 1.99995 37056 ft 467 kts 190°
2026-04-29 16:05 45.64060 1.98814 37057 ft 467 kts 190°
2026-04-29 16:05 45.57592 1.97636 37057 ft 467 kts 190°
2026-04-29 16:06 45.51142 1.96464 37057 ft 467 kts 190°
2026-04-29 16:06 45.44674 1.95291 36963 ft 469 kts 190°
2026-04-29 16:06 45.41435 1.94704 36469 ft 469 kts 190°
2026-04-29 16:07 45.38229 1.94125 35885 ft 464 kts 190°
2026-04-29 16:07 45.36092 1.93740 35511 ft 461 kts 190°
2026-04-29 16:07 45.31865 1.92978 34695 ft 456 kts 189°
2026-04-29 16:07 45.28731 1.92414 34097 ft 453 kts 189°
2026-04-29 16:08 45.25600 1.91851 33492 ft 449 kts 189°
2026-04-29 16:08 45.22488 1.91291 32890 ft 446 kts 189°
2026-04-29 16:08 45.19431 1.90743 32302 ft 443 kts 189°
2026-04-29 16:08 45.16369 1.90193 31712 ft 439 kts 189°
2026-04-29 16:09 45.13372 1.89657 31133 ft 436 kts 189°
2026-04-29 16:09 45.10371 1.89119 30556 ft 433 kts 189°
2026-04-29 16:09 45.07362 1.88581 29977 ft 429 kts 189°
2026-04-29 16:09 45.04435 1.88059 29413 ft 426 kts 189°
2026-04-29 16:10 45.01506 1.87536 28848 ft 423 kts 189°
2026-04-29 16:10 44.98593 1.87017 28286 ft 419 kts 189°
2026-04-29 16:10 44.95711 1.86504 27731 ft 416 kts 189°
2026-04-29 16:10 44.92824 1.85991 27176 ft 412 kts 189°
2026-04-29 16:11 44.89999 1.85489 26633 ft 408 kts 189°
2026-04-29 16:11 44.87192 1.84991 26092 ft 404 kts 189°
2026-04-29 16:11 44.84430 1.84501 25560 ft 400 kts 189°
2026-04-29 16:11 44.81669 1.84012 25030 ft 396 kts 189°
2026-04-29 16:12 44.78909 1.83524 24495 ft 392 kts 189°
2026-04-29 16:12 44.77114 1.83206 24152 ft 389 kts 189°
2026-04-29 16:12 44.73551 1.82577 23468 ft 383 kts 189°
2026-04-29 16:12 44.70928 1.82115 22964 ft 379 kts 189°
2026-04-29 16:13 44.68317 1.81654 22460 ft 374 kts 189°
2026-04-29 16:13 44.65720 1.81197 21961 ft 369 kts 189°
2026-04-29 16:13 44.63180 1.80750 21473 ft 366 kts 189°
2026-04-29 16:13 44.60630 1.80301 20982 ft 366 kts 189°
2026-04-29 16:14 44.58110 1.79858 20498 ft 365 kts 189°
2026-04-29 16:14 44.55608 1.79419 20015 ft 363 kts 189°
2026-04-29 16:14 44.53071 1.78974 19527 ft 360 kts 189°
2026-04-29 16:14 44.50621 1.78545 19056 ft 358 kts 189°
2026-04-29 16:15 44.48152 1.78113 18581 ft 355 kts 189°
2026-04-29 16:15 44.45693 1.77683 18108 ft 353 kts 189°
2026-04-29 16:15 44.43245 1.77255 17636 ft 350 kts 189°
2026-04-29 16:15 44.40832 1.76834 17172 ft 348 kts 189°
2026-04-29 16:16 44.38444 1.76417 16713 ft 345 kts 189°
2026-04-29 16:16 44.36065 1.76003 16255 ft 343 kts 189°
2026-04-29 16:16 44.33690 1.75589 15797 ft 340 kts 189°
2026-04-29 16:16 44.31338 1.75177 15344 ft 338 kts 189°
2026-04-29 16:17 44.29554 1.74598 15004 ft 333 kts 202°
2026-04-29 16:17 44.27547 1.73010 14549 ft 328 kts 217°
2026-04-29 16:17 44.25682 1.71201 14134 ft 326 kts 216°
2026-04-29 16:17 44.23822 1.69416 13720 ft 325 kts 216°
2026-04-29 16:18 44.21953 1.67624 13392 ft 323 kts 216°
2026-04-29 16:18 44.20108 1.65857 12943 ft 323 kts 216°
2026-04-29 16:18 44.18269 1.64097 12543 ft 317 kts 216°
2026-04-29 16:18 44.16457 1.62365 12135 ft 312 kts 216°
2026-04-29 16:19 44.14663 1.60652 11736 ft 307 kts 216°
2026-04-29 16:19 44.12901 1.58970 11344 ft 303 kts 215°
2026-04-29 16:19 44.11190 1.57339 10962 ft 299 kts 215°
2026-04-29 16:19 44.09473 1.55703 10579 ft 295 kts 215°
2026-04-29 16:20 44.07779 1.54090 10203 ft 291 kts 215°
2026-04-29 16:20 44.06101 1.52493 9828 ft 288 kts 215°
2026-04-29 16:20 44.04473 1.50946 9466 ft 284 kts 214°
2026-04-29 16:20 44.02829 1.49384 9099 ft 281 kts 214°
2026-04-29 16:21 44.01207 1.47844 8738 ft 277 kts 214°
2026-04-29 16:21 43.99626 1.46345 8387 ft 274 kts 214°
2026-04-29 16:21 43.98091 1.44795 8036 ft 270 kts 223°
2026-04-29 16:21 43.96851 1.42833 7677 ft 267 kts 231°
2026-04-29 16:22 43.95685 1.40833 7328 ft 264 kts 231°
2026-04-29 16:22 43.94524 1.38858 6989 ft 261 kts 231°
2026-04-29 16:22 43.93395 1.36938 6655 ft 258 kts 231°
2026-04-29 16:22 43.92255 1.35003 6319 ft 255 kts 231°
2026-04-29 16:23 43.91135 1.33103 5988 ft 254 kts 230°
2026-04-29 16:23 43.90021 1.31217 5660 ft 253 kts 230°
2026-04-29 16:23 43.88885 1.29293 5325 ft 253 kts 230°
2026-04-29 16:23 43.87764 1.27397 4996 ft 251 kts 230°
2026-04-29 16:24 43.86651 1.25538 4670 ft 250 kts 226°
2026-04-29 16:24 43.85281 1.24043 4342 ft 247 kts 211°
2026-04-29 16:24 43.83839 1.22772 4024 ft 246 kts 212°
2026-04-29 16:24 43.82385 1.21476 3703 ft 245 kts 212°
2026-04-29 16:25 43.80941 1.20285 3403 ft 241 kts 201°
2026-04-29 16:25 43.79328 1.19949 3309 ft 218 kts 172°
2026-04-29 16:25 43.78090 1.20526 3453 ft 169 kts 152°
2026-04-29 16:25 43.77130 1.21389 3064 ft 159 kts 144°
2026-04-29 16:26 43.76200 1.22309 3062 ft 165 kts 144°
2026-04-29 16:26 43.75285 1.23244 3027 ft 163 kts 143°
2026-04-29 16:26 43.74361 1.24204 2859 ft 165 kts 143°
2026-04-29 16:26 43.73445 1.25162 2653 ft 163 kts 143°
2026-04-29 16:27 43.72536 1.26111 2444 ft 162 kts 143°
2026-04-29 16:27 43.71635 1.27053 2236 ft 161 kts 143°
2026-04-29 16:27 43.70795 1.27932 2048 ft 143 kts 143°
2026-04-29 16:27 43.70018 1.28744 1857 ft 136 kts 143°
2026-04-29 16:28 43.69284 1.29511 1680 ft 129 kts 143°
2026-04-29 16:28 43.68572 1.30253 1510 ft 128 kts 142°
2026-04-29 16:28 43.67857 1.30998 1353 ft 127 kts 142°
2026-04-29 16:28 43.67153 1.31733 1188 ft 127 kts 142°
2026-04-29 16:29 43.66440 1.32477 1021 ft 127 kts 141°
2026-04-29 16:29 43.65723 1.33224 854 ft 128 kts 141°
2026-04-29 16:29 43.65008 1.33970 689 ft 128 kts 140°
2026-04-29 16:29 43.64289 1.34714 534 ft 128 kts 140°
2026-04-29 16:30 43.63613 1.35416 496 ft 105 kts 139°
2026-04-29 16:30 43.63199 1.35856 504 ft 50 kts 145°
2026-04-29 16:30 43.62955 1.36109 504 ft 41 kts 144°
2026-04-29 16:30 43.62769 1.36306 500 ft 27 kts 142°
2026-04-29 16:31 43.62615 1.36468 495 ft 16 kts 141°
2026-04-29 16:31 43.62513 1.36578 495 ft 19 kts 137°
2026-04-29 16:31 43.62452 1.36738 495 ft 16 kts 94°
2026-04-29 16:31 43.62460 1.36881 495 ft 9 kts 82°
2026-04-29 16:32 43.62470 1.36984 495 ft 12 kts 82°
2026-04-29 16:32 43.62485 1.37135 495 ft 16 kts 80°
2026-04-29 16:32 43.62520 1.37275 495 ft 16 kts 75°
2026-04-29 16:32 43.62479 1.37383 496 ft 12 kts 142°
2026-04-29 16:33 43.62410 1.37452 497 ft 3 kts 142°
2026-04-29 16:33 43.62384 1.37481 498 ft 6 kts 141°
2026-04-29 16:33 43.62340 1.37528 498 ft 10 kts 142°
2026-04-29 16:34 43.62285 1.37585 499 ft 8 kts 142°
2026-04-29 16:34 43.62273 1.37597 499 ft 3 kts 142°
2026-04-29 16:34 43.62240 1.37632 500 ft 6 kts 142°
2026-04-29 16:34 43.62209 1.37664 500 ft 8 kts 143°
2026-04-29 16:35 43.62146 1.37730 502 ft 14 kts 141°
2026-04-29 16:35 43.62053 1.37829 503 ft 19 kts 144°
2026-04-29 16:35 43.61959 1.37920 504 ft 17 kts 143°
2026-04-29 16:35 43.61857 1.38030 505 ft 16 kts 136°
2026-04-29 16:36 43.61870 1.38113 504 ft 7 kts 20°
2026-04-29 16:36 43.61940 1.38100 505 ft 12 kts 330°
2026-04-29 16:36 43.62019 1.38050 505 ft 5 kts 13°
2026-04-29 16:36 43.62050 1.38065 505 ft 15 kts 22°
2026-04-29 16:37 43.62128 1.38093 504 ft 7 kts 338°
2026-04-29 16:37 43.62144 1.38038 505 ft 2 kts 240°
2026-04-29 16:37 43.62137 1.38025 504 ft 0 kts 234°